ARABSAT-5C

Last updated on Jan. 17, 2021, 6:29 a.m. UTC

1 37810U 11049B   21016.83591130  .00000119  00000-0  00000-0 0  9995
2 37810   0.0572  17.9804 0002594 231.0293 188.3707  1.00270238 34233
UTC
Height (km)
Latitude
Longitude
Inclination
Orbital Period
UTC large
Height (km)
Speed (km/s)
/
Latitude / Longitude
Inclination (degrees)
Orbital Period (minutes)
Azimuth
Elevation
Range (km)
Doppler Factor
iOS Compass Heading
iOS Angle

Next 30 passes for location: Hong Kong

Rise time Rise Azimuth (degrees) Set time Set Azimuth (degrees) Duration Max altitude (degrees)

No matching passes for this satellites